This is the latest recevied weather packets stored in our database for station/object WA1NHP. If no packets are shown the sender has not sent any weather packets the latest 10 day(s).
| Time | Temp. | Humidity | Pressure | Rain* | Wind** | Luminosity | Snow |
|---|---|---|---|---|---|---|---|
| 1777683244 | 8.89° C | 52% | 1023.9 hPa | 0 mm | - | 0 W/m² | - |
| 1777682644 | 8.89° C | 60% | 1023.9 hPa | 0 mm | - | 0 W/m² | - |
| 1777682044 | 8.89° C | 56% | 1023.9 hPa | 0 mm | - | 0 W/m² | - |
| 1777681444 | 9.44° C | 52% | 1023.9 hPa | 0 mm | - | 0 W/m² | - |
| 1777680843 | 9.44° C | 52% | 1023.9 hPa | 0 mm | - | 0 W/m² | - |
| 1777680244 | 10° C | 49% | 1023.9 hPa | 0 mm | - | 0 W/m² | - |
| 1777679644 | 10.56° C | 47% | 1023.9 hPa | 0 mm | - | 0 W/m² | - |
| 1777679044 | 11.11° C | 47% | 1023.9 hPa | 0 mm | - | 0 W/m² | - |
| 1777678444 | 11.11° C | 48% | 1023.9 hPa | 0 mm | - | 5 W/m² | - |
| 1777677844 | 11.67° C | 46% | 1023.9 hPa | 0 mm | - | 9 W/m² | - |
| 1777677243 | 11.67° C | 43% | 1023.9 hPa | 0 mm | - | 12 W/m² | - |
| 1777676644 | 12.22° C | 43% | 1023.9 hPa | 0 mm | - | 18 W/m² | - |
| 1777676044 | 12.78° C | 43% | 1023.9 hPa | 0 mm | - | 33 W/m² | - |
| 1777675444 | 12.78° C | 43% | 1023.9 hPa | 0 mm | - | 33 W/m² | - |
| 1777674844 | 12.78° C | 42% | 1023.9 hPa | 0 mm | - | 26 W/m² | - |
| 1777674245 | 12.78° C | 41% | 1023.9 hPa | 0 mm | - | 28 W/m² | - |
| 1777673643 | 12.78° C | 40% | 1023.9 hPa | 0 mm | - | 35 W/m² | - |
| 1777673044 | 13.33° C | 41% | 1023.9 hPa | 0 mm | - | 37 W/m² | - |
| 1777672444 | 13.33° C | 41% | 1023.9 hPa | 0 mm | - | 60 W/m² | - |
| 1777671844 | 13.89° C | 40% | 1023.9 hPa | 0 mm | - | 76 W/m² | - |
| 1777671244 | 13.33° C | 40% | 1023.9 hPa | 0 mm | - | 111 W/m² | - |
| 1777670644 | 13.89° C | 39% | 1023.9 hPa | 0 mm | - | 123 W/m² | - |
| 1777670043 | 13.89° C | 39% | 1023.9 hPa | 0 mm | - | 62 W/m² | - |
| 1777669443 | 13.89° C | 40% | 1023.9 hPa | 0 mm | - | 330 W/m² | - |
| 1777668843 | 14.44° C | 42% | 1023.9 hPa | 0 mm | - | 204 W/m² | - |
* Rain latest hour (hover to see other rain measurements)
** Current wind speed in m/s (hover to see current wind gust speed)